RH
70 69 69 70 70 70 71 72 73 74 75 75 75 75 75 76 78 59 38 30 44 56 51 44 39 40 39 42 43 40 33 25 22 25 17 22 24 24 23 19 21 20 20 18 24
70 69 69 70 70 71 73 74 74 74 74 74 74 74 75 78 70 45 37 46 51 59 42 42 40 41 36 41 45 38 33 20 20 20 20 24 26 22 28 24 27 25 22 24 25
69 69 70 70 70 72 74 75 75 75 75 74 73 73 75 73 44 38 62 54 58 51 40 38 39 39 36 44 42 40 32 25 23 26 28 28 31 27 28 27 23 25 25 22 26
69 69 70 71 72 74 76 77 77 76 75 74 72 72 74 69 19 54 60 61 64 45 41 43 41 39 39 37 40 45 37 37 34 41 42 38 32 32 29 26 19 22 22 26 26
69 69 70 72 74 75 77 78 77 75 75 73 70 72 68 38 20 57 68 60 46 45 40 41 38 35 34 34 42 48 36 39 39 43 41 38 40 35 26 22 24 22 26 29 30
69 70 72 73 75 74 78 76 75 78 79 74 68 71 57 12 48 64 56 46 43 41 44 43 37 39 39 42 43 40 45 44 39 37 33 34 26 23 21 18 22 23 29 29 30
69 71 72 75 75 75 77 73 76 80 74 68 68 64 51 22 44 64 56 49 47 41 42 45 44 44 43 42 43 44 55 37 35 36 34 38 33 30 21 20 23 23 27 34 36
70 71 72 76 76 77 78 74 84 81 73 67 64 64 31 34 56 62 53 48 45 44 45 49 47 50 50 45 45 48 39 36 35 43 36 39 28 17 24 32 32 31 28 28 33
70 71 74 77 76 80 79 74 84 80 70 71 68 64 45 48 39 43 53 47 48 48 51 47 50 53 58 52 42 42 32 28 31 33 40 49 32 25 33 34 32 29 29 29 29
71 72 75 77 77 83 72 75 74 76 64 66 60 36 30 37 38 47 53 49 53 57 60 60 59 60 56 51 38 61 34 29 39 36 43 49 49 38 34 31 30 28 27 28 32
72 74 75 77 77 77 61 41 32 34 44 49 48 49 40 38 43 48 53 52 54 59 55 63 60 54 34 38 37 42 50 48 38 38 50 52 49 43 35 31 32 28 32 30 35
73 77 76 77 74 59 49 57 72 69 53 51 53 54 48 45 40 43 49 56 59 50 64 72 73 38 47 50 57 56 59 51 40 36 44 44 45 37 33 38 48 46 50 51 52
73 76 77 78 69 55 38 45 49 75 59 40 42 42 41 30 41 41 52 55 57 57 57 60 37 44 59 57 63 50 60 59 45 35 37 47 50 37 46 49 49 48 50 52 55
74 75 79 70 44 53 46 38 56 71 36 37 42 40 19 36 40 40 54 59 61 62 56 58 52 64 63 59 47 52 32 37 48 51 54 36 55 28 45 54 50 46 45 48 52
74 75 79 54 36 30 36 44 66 65 86 39 44 31 25 36 40 33 35 50 63 58 66 44 48 55 60 49 46 50 40 46 44 46 48 41 70 37 42 56 53 45 45 46 47
74 74 76 40 30 41 40 69 62 50 89 63 44 36 28 42 39 28 36 26 30 34 34 41 42 33 38 38 39 39 49 46 46 56 89 47 49 39 46 50 50 40 38 39 40
72 74 55 26 28 38 59 60 48 56 38 48 42 33 44 46 36 32 48 36 39 47 25 30 26 44 34 37 29 32 34 67 65 83 62 38 50 50 60 49 43 41 38 35 34
70 72 43 24 36 57 57 28 53 50 47 37 32 33 54 39 32 28 28 36 34 35 42 53 46 46 29 32 32 29 34 60 87 65 58 66 84 96 79 46 42 45 46 44 40
64 56 30 28 40 67 36 65 56 46 38 35 30 39 43 39 33 27 29 45 42 37 47 44 38 29 24 30 25 26 33 26 43 29 46 33 85 97 95 94 87 87 78 79 69
46 49 24 32 42 44 37 56 51 38 37 36 39 39 35 40 38 35 26 42 46 40 35 42 62 30 26 26 18 22 22 36 36 54 44 30 67 95 96 96 98 97 95 94 93
42 26 21 35 39 29 51 48 42 37 37 37 36 38 44 48 45 37 34 43 43 44 37 35 39 37 27 27 28 29 38 37 40 46 50 39 94 97 97 96 95 96 96 97 96
40 24 28 38 21 29 37 42 43 41 37 38 43 46 50 48 46 36 40 39 37 46 42 34 46 56 35 22 28 44 70 49 54 60 37 54 90 95 95 93 91 84 80 89 94
28 27 34 32 17 24 36 45 45 43 42 41 45 49 46 44 41 34 37 33 43 43 42 65 60 58 30 25 79 82 67 43 46 45 45 45 90 57 53 53 55 65 48 47 45
28 21 30 35 36 29 36 48 47 44 46 47 49 48 40 36 38 43 42 38 40 44 58 52 46 54 73 52 40 48 44 43 51 56 54 48 54 71 83 61 54 48 34 38 42
40 48 54 35 40 44 44 49 53 52 44 45 44 39 46 52 43 42 42 43 40 50 50 52 61 51 49 56 68 70 76 81 76 84 81 77 84 80 58 46 38 34 33 30 37
30 37 47 47 51 47 53 59 63 59 59 51 52 46 44 58 51 67 53 51 57 58 61 50 56 44 44 49 53 77 57 61 63 63 47 46 63 48 40 37 36 36 36 34 39
69 56 36 55 56 43 54 63 63 60 52 54 55 53 46 45 53 52 53 56 58 70 66 55 55 58 48 32 59 56 85 62 51 56 55 67 73 49 46 44 44 45 38 36 37
Wind_Speed
17 18 17 17 17 16 16 15 14 13 13 12 12 12 12 12 10 3 4 1 1 5 5 6 3 4 3 3 2 2 6 9 7 6 3 3 8 5 2 11 8 9 7 2 3
18 19 19 18 19 18 16 16 15 14 13 12 11 11 10 11 6 5 2 4 5 9 6 7 5 3 3 3 4 7 6 6 3 4 5 4 9 6 7 13 13 13 12 9 5
18 19 19 19 18 18 18 16 15 14 13 11 11 10 10 9 5 2 4 4 7 7 1 2 4 3 5 4 7 5 8 3 4 6 7 8 9 8 11 16 14 13 16 16 15
19 20 20 20 19 18 18 17 16 14 13 12 10 9 9 3 4 3 1 6 8 4 4 5 4 4 4 7 6 8 11 13 6 1 4 10 8 14 18 20 15 12 13 9 12
20 20 20 20 19 18 18 17 17 16 13 10 8 7 4 4 0 4 8 7 4 4 4 5 6 4 8 4 4 13 13 10 9 9 11 14 20 22 19 15 21 22 18 18 18
22 22 21 20 20 19 18 17 18 14 9 5 2 3 3 4 2 2 2 3 2 3 4 5 3 3 7 7 9 4 9 14 13 15 14 18 26 21 14 17 21 22 22 21 22
22 22 22 21 20 21 19 19 13 7 5 2 2 2 2 2 3 1 0 1 0 1 3 3 2 6 1 6 3 8 13 15 16 13 12 9 25 17 22 18 21 21 18 14 14
22 22 22 20 20 20 18 16 6 4 3 4 4 1 3 2 0 2 1 2 1 1 0 2 2 3 6 5 6 8 11 9 6 4 3 8 29 17 3 5 9 13 15 14 10
22 22 22 21 21 20 17 8 2 2 1 5 1 3 4 1 1 3 2 1 3 2 2 3 1 3 3 7 9 7 13 15 11 5 6 13 21 9 6 13 16 15 11 11 12
23 22 22 20 20 19 15 3 2 2 1 3 1 3 3 5 3 2 0 1 1 3 2 3 4 6 6 8 11 10 15 16 15 3 11 15 24 23 21 19 19 17 15 13 9
24 23 22 19 18 15 6 1 2 3 7 4 3 2 2 7 3 1 0 3 1 3 4 2 7 12 13 12 15 16 18 22 20 17 19 21 24 23 20 19 19 15 13 12 7
25 24 23 18 13 12 5 6 3 1 4 1 3 4 4 4 2 3 1 3 3 8 2 5 12 16 7 10 13 16 19 22 21 15 14 18 22 19 21 13 5 5 3 3 4
24 24 21 18 3 4 8 5 3 4 2 3 2 4 4 6 3 6 4 2 6 9 10 14 14 8 7 11 16 17 17 22 23 21 19 18 24 22 3 5 5 6 7 8 8
24 22 18 20 2 2 3 7 3 4 2 6 4 6 8 7 3 7 7 4 3 7 8 11 7 7 7 13 15 25 19 20 22 18 18 6 16 17 11 6 6 8 9 9 10
23 20 14 11 3 2 5 6 4 4 4 6 4 5 10 6 10 7 7 3 10 13 7 11 14 18 20 20 16 24 21 20 22 22 22 20 12 15 11 9 6 9 11 11 12
21 16 11 2 1 3 7 2 3 3 2 3 5 9 12 8 5 11 9 7 3 8 9 16 11 12 11 14 15 15 14 17 19 16 15 21 19 14 12 10 9 12 13 13 14
19 9 4 1 5 9 4 3 3 1 4 7 6 10 9 8 5 11 9 13 7 12 10 18 9 1 14 20 13 15 17 8 10 9 11 5 10 6 9 13 14 14 13 14 14
15 2 4 3 6 4 2 3 2 2 5 6 6 12 4 13 4 14 9 6 12 9 10 9 6 10 21 13 10 21 14 10 10 8 9 7 7 7 13 13 16 16 15 15 16
7 1 2 10 5 2 3 6 4 4 5 10 13 5 1 5 10 11 9 5 7 13 8 8 10 24 19 16 14 10 11 14 13 18 15 10 7 9 12 12 11 12 12 13 14
1 1 4 16 6 2 5 4 2 4 6 3 5 5 7 11 9 14 6 5 6 11 11 7 15 14 12 20 16 6 14 9 7 8 14 14 6 8 10 11 9 11 11 12 12
1 1 7 14 3 7 6 4 3 4 6 7 4 7 5 7 11 10 4 4 11 12 15 15 11 16 20 17 19 16 5 7 6 5 8 12 6 10 11 11 11 12 11 11 11
1 2 7 9 6 4 3 3 3 5 6 3 1 4 5 9 8 8 6 8 15 14 18 12 8 12 18 21 9 8 10 15 6 5 6 6 6 7 10 12 13 15 14 12 10
3 3 5 7 5 4 3 4 4 7 7 6 6 6 8 9 8 8 8 14 5 20 10 8 5 12 14 7 5 4 6 12 9 8 7 6 6 10 10 12 13 15 17 16 14
1 2 5 6 3 3 2 4 4 5 4 5 3 3 10 8 3 9 13 11 18 17 15 9 10 13 13 17 19 17 18 16 8 4 5 6 5 12 17 16 16 16 19 16 15
5 4 2 5 6 7 3 3 5 7 5 7 2 9 8 6 8 8 16 17 12 8 9 8 7 13 16 14 14 15 12 20 18 11 8 9 9 15 17 17 16 16 18 19 16
3 1 3 3 2 3 4 3 5 5 3 4 7 8 9 6 8 17 17 14 5 9 5 5 8 15 15 4 10 14 22 19 14 12 12 9 6 17 18 19 20 22 21 19 16
2 2 1 2 2 1 3 2 3 6 0 3 4 8 8 9 15 19 12 11 12 8 8 7 10 11 7 17 1 9 14 15 15 11 10 9 10 18 21 23 22 24 21 18 17
Wind_Direction
354 352 350 345 340 338 335 332 329 328 321 319 314 316 317 318 317 248 249 27 185 198 131 135 149 138 164 161 157 180 239 254 260 227 287 167 219 190 265 237 211 200 235 110 87
354 351 347 344 340 337 334 331 328 327 321 316 314 310 315 323 296 258 252 231 207 156 164 179 180 165 195 186 181 226 246 251 295 291 293 259 250 261 236 222 231 233 232 225 201
351 350 345 341 338 335 331 329 324 320 316 316 314 312 319 312 262 86 315 204 173 144 144 159 132 191 234 205 191 192 248 275 272 270 272 273 250 240 247 252 249 255 254 244 239
350 348 345 340 338 334 330 327 321 317 312 309 314 309 313 265 299 60 62 137 112 125 142 147 171 207 240 226 205 249 247 256 280 311 295 270 292 257 247 257 282 273 268 269 235
349 347 343 339 335 333 329 322 319 316 310 302 303 305 280 207 172 27 76 97 110 155 187 183 206 224 245 251 241 244 265 265 263 279 272 269 257 261 261 264 253 260 255 252 252
349 346 342 339 333 331 327 326 322 325 320 299 270 279 251 225 27 2 109 99 119 176 172 192 231 239 269 252 237 345 258 271 278 270 263 265 264 263 260 257 256 260 249 249 250
349 344 341 337 333 329 326 329 325 355 16 70 166 188 207 31 339 184 97 77 151 209 200 197 200 217 200 256 270 279 284 274 255 257 257 268 271 247 269 274 268 262 259 249 247
347 343 340 336 332 327 329 331 340 51 98 134 128 229 72 354 27 141 144 98 86 87 177 106 162 251 242 301 252 265 267 273 111 180 225 206 273 291 326 326 302 277 253 266 256
345 343 340 336 333 326 332 326 32 92 122 104 189 305 73 65 11 12 309 191 135 107 65 88 240 261 216 252 265 211 274 276 297 200 264 216 277 307 240 291 291 295 268 244 285
344 342 339 337 337 327 338 313 8 243 187 243 204 202 55 349 322 344 1 186 179 147 171 217 228 245 226 219 262 288 274 277 269 248 272 266 267 272 271 281 283 285 283 276 274
342 340 339 339 339 334 347 213 261 176 37 31 341 338 298 329 253 79 18 172 167 232 253 204 249 243 262 249 274 280 274 274 278 279 267 272 273 279 279 276 275 294 285 277 266
342 338 336 339 340 354 13 57 56 315 316 353 279 278 251 310 300 52 236 247 227 275 220 220 249 275 283 263 253 258 269 272 280 273 264 270 273 276 285 291 307 303 1 70 104
341 337 334 336 335 45 67 54 313 198 298 356 355 5 354 328 18 359 307 303 266 269 256 258 278 299 250 253 260 255 255 271 278 293 278 275 273 263 155 134 102 73 74 60 50
340 337 337 333 170 20 64 334 260 205 225 20 12 31 337 331 130 3 8 295 248 291 295 273 285 271 270 265 276 281 286 284 276 277 273 264 281 281 171 150 103 81 63 54 48
341 338 344 20 332 31 346 326 154 230 309 4 14 350 342 27 325 57 24 284 289 290 282 264 295 299 288 286 290 280 290 282 278 272 274 262 253 262 161 179 110 76 65 57 54
340 334 337 28 18 63 323 222 210 239 266 1 348 359 352 12 23 332 9 16 297 286 251 278 312 286 323 313 281 295 299 295 265 255 253 250 245 256 204 180 124 92 71 61 57
337 329 26 8 327 330 311 218 282 28 359 1 343 342 329 342 3 6 12 34 12 330 322 311 302 72 16 343 323 336 325 295 259 232 253 330 281 288 79 117 113 95 75 64 57
339 341 37 60 324 295 238 256 10 25 1 350 320 321 3 8 33 353 346 345 43 358 303 324 296 20 357 348 320 302 280 277 295 291 309 301 318 74 80 84 96 88 76 66 57
333 46 31 347 336 261 268 47 22 6 339 328 307 300 53 35 343 348 8 21 40 27 351 311 282 337 326 337 317 327 290 327 274 260 260 267 110 111 118 78 66 66 60 48 40
28 56 15 341 334 261 61 89 68 29 329 308 325 15 325 354 346 347 317 53 359 20 6 326 298 306 318 319 290 305 316 301 243 272 263 251 114 38 81 85 64 48 37 40 29
47 120 358 346 280 45 68 76 92 49 2 349 330 303 339 346 333 330 324 91 17 351 335 319 276 300 305 303 302 307 316 302 288 315 286 272 92 20 34 43 43 33 30 29 29
43 70 352 325 47 41 57 32 39 14 16 23 34 25 355 346 319 312 315 325 359 349 334 312 290 291 307 305 309 86 47 12 352 2 302 278 83 32 45 41 41 31 19 7 10
50 356 351 333 55 64 91 75 52 23 26 16 11 29 17 338 317 316 335 338 333 338 323 320 305 313 311 312 102 12 336 337 306 281 288 302 70 46 56 58 40 28 6 359 358
53 15 40 47 33 56 57 47 32 41 64 5 13 35 349 325 319 300 317 318 323 315 332 327 292 298 307 306 308 306 320 316 269 257 318 4 18 21 24 17 14 6 1 352 352
14 75 28 21 54 66 64 40 19 8 25 22 54 358 346 301 322 325 322 327 339 5 351 349 301 337 308 306 297 291 346 27 43 31 19 360 49 10 2 349 344 346 345 343 341
68 122 95 86 69 81 28 53 19 346 302 31 350 323 317 285 320 310 317 327 341 305 311 346 315 323 312 324 19 46 42 30 19 19 13 353 48 358 342 338 339 338 334 331 327
68 92 296 49 97 90 53 47 56 342 292 27 328 310 314 332 314 291 299 276 264 294 316 325 334 326 338 337 183 46 10 24 3 29 357 17 349 336 335 332 333 327 322 323 328